[[[{"header":{"parameterUnit":"kt","parameterCategory":2,"dx":1,"dy":1,"la1":30.253999710083008,"la2":30.299108505249023,"lo1":-89.0895004272461,"lo2":-89.04439544677734,"nx":28,"ny":28,"refTime":"2022-09-25T21:00:00:Z","depth":"0","parameterNumber":2,"parameterNumberName":"U-component_of_CURRENTS"},"data":[-0.0927,-0.0897,-0.085,-0.0855,-0.0858,-0.087,-0.0872,-0.0837,-0.0847,-0.0956,-0.1164,-0.128,-0.1578,-0.2389,-0.2551,-0.2408,-0.2202,-0.2203,-0.191,-0.205,-0.2005,-0.1961,-0.2066,-0.2388,-0.2388,-0.2087,-0.2085,-0.2083,-0.0891,-0.0838,-0.0822,-0.0812,-0.0833,-0.0835,-0.0861,-0.0849,-0.0877,-0.0955,-0.1057,-0.1441,-0.167,-0.1773,-0.1962,-0.189,-0.1747,-0.1809,-0.1866,-0.1727,-0.1691,-0.1798,-0.207,-0.207,-0.2069,-0.2069,-0.2069,-0.2069,-0.0814,-0.0804,-0.0759,-0.076,-0.0782,-0.0811,-0.0826,-0.0854,-0.0899,-0.0953,-0.1065,-0.117,-0.1394,-0.1299,-0.1221,-0.1324,-0.1043,-0.1356,-0.1262,-0.1192,-0.1176,-0.1069,-0.1162,-0.1159,-0.1157,-0.1155,-0.1153,0,-0.0759,-0.0729,-0.072,-0.0711,-0.0733,-0.0767,-0.0805,-0.0825,-0.0863,-0.0909,-0.0991,-0.1039,-0.104,-0.1104,-0.0971,-0.0887,-0.0815,-0.0795,-0.0901,-0.123,-0.1215,-0.1106,-0.0937,-0.1033,-0.1029,-0.1027,-0.1025,-0.1023,-0.0694,-0.0687,-0.0666,-0.0675,-0.0679,-0.0716,-0.0743,-0.0766,-0.0793,-0.0863,-0.0884,-0.0891,-0.0926,-0.081,-0.0739,-0.062,-0.0579,-0.0712,-0.0751,-0.0877,-0.0799,-0.075,-0.0666,-0.0982,-0.0987,-0.0991,-0.0995,0,-0.066,-0.0627,-0.0637,-0.0633,-0.0643,-0.0673,-0.0715,-0.0745,-0.0767,-0.0812,-0.0819,-0.0826,-0.0798,-0.0701,-0.0608,-0.0548,-0.052,-0.0453,-0.0677,-0.069,-0.0815,-0.0757,-0.0784,-0.0695,-0.0433,-0.0434,-0.0435,0,-0.0606,-0.0623,-0.0586,-0.0592,-0.063,-0.063,-0.0681,-0.0698,-0.0719,-0.0756,-0.0736,-0.0765,-0.0683,-0.0642,-0.056,-0.0507,-0.0487,-0.0462,-0.0445,-0.0643,-0.0662,-0.0769,-0.0721,-0.0415,-0.0416,-0.0417,-0.0417,0,-0.0563,-0.0564,-0.0567,-0.057,-0.0576,-0.06,-0.0621,-0.0644,-0.0667,-0.0682,-0.0699,-0.0674,-0.067,-0.0612,-0.0544,-0.0537,-0.0478,-0.0454,-0.0447,-0.0447,-0.0626,-0.0643,-0.0825,-0.0418,-0.0418,-0.0418,-0.0419,0,-0.052,-0.0505,-0.0517,-0.0526,-0.0532,-0.056,-0.0596,-0.062,-0.0635,-0.0641,-0.0641,-0.0629,-0.0611,-0.0588,-0.0531,-0.0548,-0.05,-0.0463,-0.0459,-0.0497,-0.0467,-0.0597,-0.0682,-0.0815,-0.0385,-0.0386,-0.0386,0,-0.0483,-0.0477,-0.0454,-0.0488,-0.0492,-0.0489,-0.0519,-0.0536,-0.0547,-0.057,-0.0549,-0.0567,-0.054,-0.0541,-0.0528,-0.0493,-0.0472,-0.0493,-0.0419,-0.0416,-0.0446,-0.0492,-0.0723,-0.0676,-0.0389,-0.0389,-0.0389,0,-0.0444,-0.0398,-0.0402,-0.0399,-0.04,-0.042,-0.0447,-0.0469,-0.0487,-0.0499,-0.0521,-0.0527,-0.0514,-0.0512,-0.0492,-0.0481,-0.0471,-0.0461,-0.046,-0.0409,-0.0436,-0.0488,-0.049,-0.0474,-0.0475,-0.0475,-0.0392,0,-0.0361,-0.0359,-0.037,-0.0354,-0.0371,-0.0393,-0.039,-0.0413,-0.0414,-0.0418,-0.0444,-0.0439,-0.0448,-0.0445,-0.0434,-0.0448,-0.0425,-0.0422,-0.0384,-0.0423,-0.038,-0.0378,-0.0391,-0.039,-0.0389,-0.0389,0,0,-0.0329,-0.0313,-0.0289,-0.0293,-0.0304,-0.0291,-0.0312,-0.0324,-0.0346,-0.0356,-0.0345,-0.0374,-0.0366,-0.0379,-0.0392,-0.0397,-0.038,-0.0378,-0.0411,-0.0414,-0.0416,-0.0377,-0.0376,-0.0388,-0.0387,-0.0387,-0.0387,0,-0.0283,-0.0269,-0.0271,-0.0275,-0.0274,-0.0275,-0.0281,-0.0289,-0.0294,-0.033,-0.0309,-0.0318,-0.0345,-0.0334,-0.0332,-0.0387,-0.0343,-0.039,-0.0413,-0.0406,-0.0409,-0.0412,-0.0375,-0.0374,-0.0385,-0.0385,-0.0386,0,-0.0234,-0.0214,-0.0216,-0.0214,-0.0219,-0.0235,-0.0211,-0.0234,-0.025,-0.0226,-0.0261,-0.026,-0.0256,-0.0283,-0.0293,-0.0274,-0.0304,-0.0307,-0.0311,-0.0313,-0.0304,-0.0308,-0.0312,-0.0254,-0.0253,-0.0253,0,0,-0.0202,-0.0196,-0.0185,-0.0205,-0.0205,-0.0206,-0.022,-0.0214,-0.0223,-0.0229,-0.023,-0.0231,-0.024,-0.0242,-0.0255,-0.0284,-0.0262,-0.029,-0.0296,-0.0302,-0.0307,-0.0299,-0.0304,-0.0251,-0.0251,-0.0251,0,0,-0.0194,-0.0162,-0.0146,-0.0162,-0.0174,-0.018,-0.0204,-0.0197,-0.0216,-0.0208,-0.0191,-0.019,-0.0217,-0.0212,-0.0191,-0.0229,-0.0205,-0.0209,-0.0225,-0.0232,-0.0239,-0.0239,-0.0144,0,0,0,0,0,-0.0142,-0.0163,-0.0148,-0.0149,-0.0157,-0.0185,-0.019,-0.0186,-0.0168,-0.0189,-0.0188,-0.0159,-0.0197,-0.0178,-0.0181,-0.0189,-0.0228,-0.0232,-0.0236,-0.0264,-0.0272,-0.0279,0,0,0,0,0,0,-0.0142,-0.014,-0.0148,-0.015,-0.0153,-0.0184,-0.0149,-0.0149,-0.0165,-0.0162,-0.0162,-0.0159,-0.0144,-0.0175,-0.0178,-0.0186,-0.0143,-0.023,-0.0233,-0.0236,-0.0267,-0.0274,-0.0279,0,0,0,0,0,-0.0142,-0.0141,-0.0147,-0.0151,-0.0154,-0.0155,-0.0147,-0.0147,-0.0162,-0.015,-0.0147,-0.0157,-0.0145,-0.0146,-0.0176,-0.0185,-0.0141,-0.0142,-0.0232,-0.0235,-0.0237,-0.027,0,0,0,0,0,0,-0.0142,-0.0152,-0.0149,-0.0151,-0.0134,-0.0154,-0.0153,-0.0146,-0.0148,-0.0147,-0.0143,-0.014,-0.0147,-0.0147,-0.0148,-0.0185,-0.0139,-0.0141,-0.0141,-0.0234,-0.0236,-0.0238,0,0,0,0,0,0,-0.0152,-0.0153,-0.015,-0.0127,-0.0127,-0.0153,-0.0152,-0.017,-0.0148,-0.0141,-0.0139,-0.0141,-0.0134,-0.0148,-0.0148,-0.0178,-0.0138,-0.0139,-0.014,-0.014,-0.0236,-0.0237,0,0,0,0,0,0,-0.0153,-0.0154,-0.0127,-0.0126,-0.0126,-0.015,-0.0168,-0.0171,-0.0148,-0.014,-0.0143,-0.0141,-0.0134,-0.0135,-0.0149,-0.0179,-0.0178,-0.0138,-0.0139,-0.0139,-0.014,0,0,0,0,0,0,0,-0.0154,-0.014,-0.0134,-0.0126,-0.0125,-0.017,-0.017,-0.0171,-0.0147,-0.0145,-0.0143,-0.0142,-0.0131,-0.0133,-0.0134,-0.0179,0,0,-0.0138,-0.0139,0,0,0,0,0,0,0,0,-0.014,-0.014,-0.0134,-0.0134,-0.0135,-0.017,-0.017,-0.0171,-0.0147,-0.0145,-0.0144,-0.0142,-0.0132,-0.0133,-0.0134,0,0,0,0,0,0,0,0,0,0,0,0,0,0,0,-0.0134,-0.0134,0,-0.017,-0.017,-0.0171,-0.0147,-0.0145,-0.0144,-0.0143,-0.0132,-0.0133,-0.0134,0,0,0,0,0,0,0,0,0,0,0,0,0,0,0,0,0,0,0,0,0,0,0,0,0,0,0,0,0,0,0,0,0,0,0,0,0,0,0,0,0,0,0,0,0,0,0,0,0,0,0,0,0,0,0,0,0,0,0,0,0,0,0,0,0,0,0,0,0]}],[{"header":{"parameterUnit":"kt","parameterCategory":2,"dx":1,"dy":1,"la1":30.253999710083008,"la2":30.299108505249023,"lo1":-89.0895004272461,"lo2":-89.04439544677734,"nx":28,"ny":28,"refTime":"2022-09-25T21:00:00:Z","depth":"0","parameterNumber":3,"parameterNumberName":"V-component_of_CURRENTS"},"data":[-0.1421,-0.1416,-0.1446,-0.1467,-0.1485,-0.149,-0.1497,-0.1558,-0.167,-0.1712,-0.1703,-0.1707,-0.028,0.1738,0.2919,0.2973,0.3521,0.339,0.3679,0.3161,0.3067,0.2977,0.3094,0.3896,0.3899,0.471,0.4721,0.4729,-0.1463,-0.1482,-0.1488,-0.1496,-0.1504,-0.1505,-0.1507,-0.1522,-0.157,-0.1688,-0.1705,-0.1283,-0.0579,0.0052,0.1049,0.1532,0.1576,0.1899,0.2121,0.2263,0.115,0.1198,0.1609,0.1609,0.1609,0.1608,0.1607,0.1607,-0.154,-0.1531,-0.1539,-0.1535,-0.1529,-0.1529,-0.1514,-0.1525,-0.1516,-0.1513,-0.1459,-0.1453,-0.0831,-0.0516,-0.0325,0.0376,0.0241,0.0629,0.0885,0.0842,0.1111,-0.023,-0.0082,-0.0084,-0.0085,-0.0087,-0.0088,0,-0.1595,-0.16,-0.1583,-0.1585,-0.1562,-0.1534,-0.1497,-0.1485,-0.1408,-0.1377,-0.1331,-0.1256,-0.1016,-0.0772,-0.0545,-0.0459,0.0122,-0.0268,0.0306,0.0803,0.0844,0.1078,-0.0278,-0.0114,-0.0116,-0.0118,-0.0119,-0.012,-0.1656,-0.1643,-0.1626,-0.1615,-0.1591,-0.1541,-0.1505,-0.143,-0.1392,-0.1269,-0.1241,-0.1076,-0.0996,-0.0775,-0.0647,-0.0506,-0.016,-0.031,-0.0355,0.0179,0.0466,0.0476,0.0669,-0.0142,-0.0139,-0.0137,-0.0135,0,-0.1686,-0.1684,-0.1649,-0.1609,-0.1596,-0.1551,-0.1478,-0.1424,-0.1335,-0.125,-0.1208,-0.1068,-0.0934,-0.0797,-0.0656,-0.0631,-0.0266,-0.0523,-0.0407,-0.0383,0.0094,0.0339,0.0695,0.0951,-0.0476,-0.0476,-0.0476,0,-0.1718,-0.1689,-0.1675,-0.1653,-0.1603,-0.1553,-0.1475,-0.1406,-0.1307,-0.1242,-0.1134,-0.1068,-0.0925,-0.0823,-0.0769,-0.0672,-0.0637,-0.0656,-0.0641,-0.0531,-0.0526,-0.0011,0.0248,-0.0611,-0.0612,-0.0613,-0.0613,0,-0.1741,-0.1706,-0.1676,-0.1656,-0.1592,-0.155,-0.1501,-0.1394,-0.1335,-0.1205,-0.1158,-0.1023,-0.0949,-0.0879,-0.0796,-0.0826,-0.067,-0.0694,-0.0677,-0.0678,-0.0518,-0.051,0.0106,-0.0615,-0.0615,-0.0615,-0.0616,0,-0.1745,-0.1736,-0.1696,-0.1642,-0.1626,-0.1581,-0.148,-0.1418,-0.1299,-0.1247,-0.1152,-0.1085,-0.0975,-0.1002,-0.0861,-0.0908,-0.0872,-0.0833,-0.0827,-0.0825,-0.0837,-0.0619,-0.0539,0.0011,-0.0772,-0.0774,-0.0775,0,-0.1766,-0.1743,-0.1723,-0.167,-0.1647,-0.1597,-0.1531,-0.1457,-0.139,-0.1303,-0.1217,-0.1113,-0.1106,-0.1057,-0.102,-0.0938,-0.0902,-0.0967,-0.0838,-0.0834,-0.0866,-0.0827,-0.069,-0.057,-0.0795,-0.0793,-0.0791,0,-0.1782,-0.1757,-0.1752,-0.1735,-0.1683,-0.1652,-0.1581,-0.1504,-0.1451,-0.1373,-0.129,-0.1164,-0.1135,-0.1071,-0.102,-0.0984,-0.0933,-0.0988,-0.0984,-0.0946,-0.0825,-0.0852,-0.084,-0.0936,-0.0934,-0.0933,-0.0807,0,-0.1787,-0.1773,-0.1762,-0.174,-0.1703,-0.167,-0.1621,-0.1571,-0.153,-0.1479,-0.1358,-0.1264,-0.1151,-0.1126,-0.1089,-0.1006,-0.1,-0.0999,-0.0993,-0.0977,-0.0924,-0.0912,-0.1047,-0.1046,-0.1046,-0.1045,0,0,-0.1807,-0.18,-0.1792,-0.1776,-0.1746,-0.1717,-0.1687,-0.1638,-0.1547,-0.1502,-0.1501,-0.1303,-0.1224,-0.1097,-0.1095,-0.1054,-0.1027,-0.1045,-0.0991,-0.0985,-0.098,-0.0929,-0.0918,-0.1044,-0.1044,-0.1044,-0.1044,0,-0.1818,-0.1816,-0.181,-0.1783,-0.1751,-0.172,-0.1712,-0.1658,-0.162,-0.1528,-0.147,-0.1386,-0.124,-0.1167,-0.111,-0.1056,-0.1009,-0.1039,-0.104,-0.0989,-0.0984,-0.0979,-0.0929,-0.0919,-0.1043,-0.1043,-0.1043,0,-0.1836,-0.1832,-0.1825,-0.18,-0.177,-0.1736,-0.1726,-0.1687,-0.1643,-0.1568,-0.147,-0.14,-0.1294,-0.1195,-0.1143,-0.1142,-0.1004,-0.1038,-0.1039,-0.1023,-0.0969,-0.0963,-0.0959,-0.1019,-0.1019,-0.1019,0,0,-0.1848,-0.1843,-0.1818,-0.1801,-0.179,-0.1744,-0.1715,-0.1692,-0.1625,-0.1591,-0.1505,-0.1414,-0.132,-0.1261,-0.1169,-0.1071,-0.1032,-0.1037,-0.1038,-0.1039,-0.1025,-0.0971,-0.0966,-0.102,-0.102,-0.102,0,0,-0.1844,-0.1833,-0.1832,-0.1818,-0.1781,-0.1727,-0.1697,-0.1675,-0.1593,-0.1586,-0.1492,-0.1461,-0.1352,-0.1295,-0.1316,-0.1169,-0.1163,-0.1155,-0.1204,-0.1204,-0.1205,-0.1212,-0.127,0,0,0,0,0,-0.185,-0.1841,-0.184,-0.1835,-0.1785,-0.1736,-0.1722,-0.168,-0.1675,-0.165,-0.1568,-0.1523,-0.1298,-0.1314,-0.1281,-0.1248,-0.1028,-0.1027,-0.1025,-0.1064,-0.1066,-0.1067,0,0,0,0,0,0,-0.1848,-0.1844,-0.1839,-0.1796,-0.1783,-0.1736,-0.1728,-0.1715,-0.1676,-0.1672,-0.1543,-0.152,-0.1455,-0.1325,-0.1296,-0.1267,-0.128,-0.1028,-0.1026,-0.1025,-0.1065,-0.1066,-0.1067,0,0,0,0,0,-0.1846,-0.1843,-0.1786,-0.1793,-0.1782,-0.1723,-0.1729,-0.1718,-0.1681,-0.1573,-0.1551,-0.1652,-0.1457,-0.1426,-0.1307,-0.1282,-0.1299,-0.1288,-0.1027,-0.1026,-0.1025,-0.1065,0,0,0,0,0,0,-0.1844,-0.1815,-0.1781,-0.1774,-0.1802,-0.1723,-0.1715,-0.172,-0.1581,-0.1562,-0.1677,-0.1676,-0.1457,-0.1433,-0.141,-0.1293,-0.1314,-0.1304,-0.1297,-0.1026,-0.1025,-0.1025,0,0,0,0,0,0,-0.1816,-0.181,-0.1777,-0.1792,-0.1786,-0.1724,-0.1716,-0.1607,-0.1577,-0.1691,-0.1687,-0.1678,-0.1468,-0.1438,-0.142,-0.1253,-0.1326,-0.1316,-0.1309,-0.1305,-0.1025,-0.1025,0,0,0,0,0,0,-0.1812,-0.1806,-0.1793,-0.1789,-0.1783,-0.1695,-0.162,-0.1555,-0.1647,-0.1695,-0.1648,-0.1649,-0.1472,-0.1453,-0.1427,-0.1268,-0.1257,-0.1326,-0.1319,-0.1314,-0.1311,0,0,0,0,0,0,0,-0.1808,-0.187,-0.1829,-0.1786,-0.1781,-0.1707,-0.1705,-0.1702,-0.1647,-0.1647,-0.1648,-0.1648,-0.1384,-0.1373,-0.1361,-0.1281,0,0,-0.1327,-0.1322,0,0,0,0,0,0,0,0,-0.187,-0.187,-0.1828,-0.1827,-0.1826,-0.1707,-0.1705,-0.1703,-0.1647,-0.1647,-0.1648,-0.1648,-0.1381,-0.1372,-0.1363,0,0,0,0,0,0,0,0,0,0,0,0,0,0,0,-0.1828,-0.1827,0,-0.1706,-0.1705,-0.1703,-0.1647,-0.1647,-0.1648,-0.1648,-0.1378,-0.1371,-0.1363,0,0,0,0,0,0,0,0,0,0,0,0,0,0,0,0,0,0,0,0,0,0,0,0,0,0,0,0,0,0,0,0,0,0,0,0,0,0,0,0,0,0,0,0,0,0,0,0,0,0,0,0,0,0,0,0,0,0,0,0,0,0,0,0,0,0,0,0,0]}]],[[{"header":{"parameterUnit":"kt","parameterCategory":2,"dx":1,"dy":1,"la1":30.253999710083008,"la2":30.299108505249023,"lo1":-89.0895004272461,"lo2":-89.04439544677734,"nx":28,"ny":28,"refTime":"2022-09-25T21:00:00:Z","depth":"2","parameterNumber":2,"parameterNumberName":"U-component_of_CURRENTS"},"data":[-0.1856,-0.1813,-0.1807,-0.1776,-0.1776,-0.1744,-0.176,-0.194,-0.2032,-0.2169,-0.2136,-0.2417,-0.1968,-0.1567,-0.1379,-0.1176,-0.1215,-0.1092,-0.1477,-0.1471,-0.1498,-0.1423,-0.1399,0,0,0,0,0,-0.1908,-0.1892,-0.1881,-0.1865,-0.188,-0.19,-0.1962,-0.2012,-0.221,-0.2422,-0.2686,-0.2257,-0.217,-0.181,-0.1492,-0.1413,-0.1382,-0.1232,-0.1189,-0.1216,-0.1241,-0.1207,-0.0968,-0.0967,-0.0966,-0.0965,0,0,-0.2001,-0.1972,-0.1964,-0.1946,-0.1967,-0.1997,-0.1978,-0.2119,-0.2246,-0.2448,-0.2622,-0.2661,-0.2378,-0.2055,-0.1896,-0.1647,-0.1773,-0.1577,-0.1585,-0.1598,-0.1582,-0.1571,-0.1442,-0.1444,-0.1446,-0.1448,-0.1449,0,-0.2071,-0.2064,-0.205,-0.2038,-0.2033,-0.2038,-0.2062,-0.2095,-0.2177,-0.23,-0.2475,-0.2562,-0.2466,-0.2316,-0.2094,-0.199,-0.1806,-0.1738,-0.1989,-0.1676,-0.1665,-0.166,-0.1677,-0.1558,-0.1561,-0.1563,-0.1564,-0.1565,-0.2161,-0.2131,-0.2119,-0.2113,-0.2103,-0.208,-0.2088,-0.212,-0.2155,-0.226,-0.2296,-0.2303,-0.2386,-0.2286,-0.2165,-0.2053,-0.2039,-0.1802,-0.1799,-0.2033,-0.2027,-0.2033,-0.2038,-0.1596,-0.1592,-0.1589,-0.1586,0,-0.221,-0.2216,-0.2178,-0.2174,-0.217,-0.2138,-0.215,-0.2156,-0.2181,-0.2216,-0.2224,-0.2286,-0.2276,-0.2204,-0.216,-0.2124,-0.2073,-0.2047,-0.1895,-0.1867,-0.2043,-0.2047,-0.1988,-0.1986,-0.1985,-0.1984,-0.1983,0,-0.2289,-0.2255,-0.2261,-0.224,-0.2205,-0.2218,-0.2186,-0.2193,-0.2209,-0.2233,-0.2234,-0.2276,-0.2231,-0.2211,-0.2181,-0.2133,-0.214,-0.2106,-0.2094,-0.1961,-0.1948,-0.2161,-0.2166,-0.2125,-0.2125,-0.2126,-0.2126,0,-0.2344,-0.233,-0.2291,-0.2287,-0.229,-0.2264,-0.2262,-0.2261,-0.2261,-0.2254,-0.2266,-0.2237,-0.224,-0.2207,-0.2196,-0.2205,-0.2157,-0.2166,-0.2114,-0.2112,-0.1976,-0.1964,-0.2126,-0.2126,-0.2127,-0.2127,-0.2127,0,-0.2402,-0.2394,-0.2356,-0.2342,-0.2335,-0.2325,-0.2299,-0.2296,-0.2291,-0.2288,-0.2269,-0.227,-0.225,-0.226,-0.2224,-0.2236,-0.2212,-0.2202,-0.22,-0.2188,-0.2185,-0.1995,-0.1919,-0.217,-0.2171,-0.2171,-0.2172,0,-0.2448,-0.2424,-0.2427,-0.2394,-0.2378,-0.2385,-0.2377,-0.2369,-0.2361,-0.2342,-0.2325,-0.2302,-0.2305,-0.2287,-0.2273,-0.226,-0.2234,-0.2258,-0.2219,-0.2218,-0.2193,-0.2157,-0.1997,-0.1936,-0.2179,-0.2178,-0.2177,0,-0.2481,-0.2473,-0.2461,-0.2446,-0.2447,-0.2443,-0.2428,-0.2416,-0.2396,-0.2381,-0.2348,-0.2322,-0.2315,-0.2304,-0.229,-0.2277,-0.2244,-0.2276,-0.2276,-0.2251,-0.2195,-0.2169,-0.2162,-0.2235,-0.2235,-0.2234,-0.2183,0,-0.2529,-0.2502,-0.249,-0.2481,-0.2477,-0.2464,-0.2474,-0.2458,-0.2436,-0.2432,-0.2388,-0.2374,-0.2343,-0.2331,-0.2328,-0.2295,-0.2289,-0.2293,-0.2299,-0.2283,-0.2263,-0.2258,-0.2318,-0.2318,-0.2319,-0.2319,0,0,-0.2556,-0.2529,-0.253,-0.2523,-0.2512,-0.2519,-0.2504,-0.2502,-0.2481,-0.2459,-0.2451,-0.2398,-0.2381,-0.2343,-0.2335,-0.2331,-0.2317,-0.2323,-0.2294,-0.2291,-0.2289,-0.2268,-0.2264,-0.232,-0.232,-0.232,-0.232,0,-0.2577,-0.2553,-0.2533,-0.2538,-0.253,-0.2534,-0.2526,-0.2518,-0.2493,-0.2474,-0.2444,-0.2414,-0.2387,-0.2366,-0.2355,-0.2338,-0.2323,-0.2325,-0.2316,-0.2298,-0.2295,-0.2292,-0.2271,-0.2267,-0.2321,-0.2321,-0.2321,0,-0.2605,-0.2598,-0.2582,-0.2575,-0.2564,-0.2563,-0.2553,-0.2534,-0.2521,-0.25,-0.2452,-0.2432,-0.2415,-0.2387,-0.237,-0.2374,-0.2333,-0.2347,-0.2345,-0.2354,-0.2336,-0.2333,-0.2329,-0.2372,-0.2372,-0.2372,0,0,-0.2623,-0.26,-0.2608,-0.2581,-0.2579,-0.2568,-0.2557,-0.2542,-0.2522,-0.25,-0.2472,-0.2442,-0.2421,-0.24,-0.2386,-0.2368,-0.2366,-0.2352,-0.2349,-0.2347,-0.2355,-0.2337,-0.2334,-0.2372,-0.2372,-0.2372,0,0,-0.2633,-0.2624,-0.2612,-0.2585,-0.2587,-0.2586,-0.2561,-0.2549,-0.2511,-0.2486,-0.2463,-0.2453,-0.2415,-0.2413,-0.2417,-0.2377,-0.2389,-0.2388,-0.2368,-0.2365,-0.2363,-0.2374,-0.2403,0,0,0,0,0,-0.2656,-0.2634,-0.2624,-0.2619,-0.2593,-0.26,-0.2596,-0.256,-0.2527,-0.2515,-0.2477,-0.2463,-0.2409,-0.2412,-0.2408,-0.2384,-0.2374,-0.2374,-0.2373,-0.2345,-0.2342,-0.2339,0,0,0,0,0,0,-0.2654,-0.2649,-0.2625,-0.2625,-0.2619,-0.26,-0.2569,-0.256,-0.2527,-0.2518,-0.2472,-0.2463,-0.245,-0.2413,-0.241,-0.2387,-0.2404,-0.2374,-0.2374,-0.2373,-0.2344,-0.2341,-0.2339,0,0,0,0,0,-0.2653,-0.2649,-0.2609,-0.2625,-0.262,-0.2579,-0.2567,-0.2559,-0.252,-0.2503,-0.2492,-0.2488,-0.2452,-0.2445,-0.2411,-0.2388,-0.2406,-0.2405,-0.2374,-0.2374,-0.2373,-0.2343,0,0,0,0,0,0,-0.2652,-0.2642,-0.2607,-0.2605,-0.2606,-0.2578,-0.257,-0.2558,-0.2505,-0.2496,-0.2522,-0.2516,-0.2454,-0.2448,-0.2443,-0.2389,-0.2407,-0.2406,-0.2406,-0.2374,-0.2373,-0.2373,0,0,0,0,0,0,-0.2644,-0.264,-0.2606,-0.2584,-0.2579,-0.2577,-0.257,-0.2566,-0.2504,-0.2526,-0.2521,-0.252,-0.2454,-0.2451,-0.2447,-0.2443,-0.2409,-0.2408,-0.2407,-0.2406,-0.2373,-0.2373,0,0,0,0,0,0,-0.2642,-0.2639,-0.2584,-0.258,-0.2575,-0.2549,-0.2572,-0.2539,-0.2505,-0.2528,-0.2499,-0.2496,-0.2457,-0.2452,-0.245,-0.2448,-0.2445,-0.2409,-0.2408,-0.2407,-0.2407,0,0,0,0,0,0,0,-0.2641,-0.2667,-0.2621,-0.2577,-0.2573,-0.2587,-0.2586,-0.2586,-0.2504,-0.2502,-0.2499,-0.2497,-0.2415,-0.2413,-0.2412,-0.2452,0,0,-0.2409,-0.2408,0,0,0,0,0,0,0,0,-0.2668,-0.2667,-0.2621,-0.2621,-0.2621,-0.2587,-0.2587,-0.2586,-0.2504,-0.2502,-0.25,-0.2498,-0.2414,-0.2413,-0.2412,0,0,0,0,0,0,0,0,0,0,0,0,0,0,0,-0.2621,-0.2621,0,-0.2587,-0.2587,-0.2586,-0.2503,-0.2502,-0.25,-0.2499,-0.2414,-0.2413,-0.2413,0,0,0,0,0,0,0,0,0,0,0,0,0,0,0,0,0,0,0,0,0,0,0,0,0,0,0,0,0,0,0,0,0,0,0,0,0,0,0,0,0,0,0,0,0,0,0,0,0,0,0,0,0,0,0,0,0,0,0,0,0,0,0,0,0,0,0,0,0]}],[{"header":{"parameterUnit":"kt","parameterCategory":2,"dx":1,"dy":1,"la1":30.253999710083008,"la2":30.299108505249023,"lo1":-89.0895004272461,"lo2":-89.04439544677734,"nx":28,"ny":28,"refTime":"2022-09-25T21:00:00:Z","depth":"2","parameterNumber":3,"parameterNumberName":"V-component_of_CURRENTS"},"data":[-0.0099,-0.0144,-0.0163,-0.0275,-0.033,-0.0438,-0.051,-0.058,-0.052,-0.0393,-0.0204,0.0196,0.0519,0.06,0.0919,0.1147,0.1033,0.1142,0.1191,0.0937,0.0909,0.1043,0.1034,0,0,0,0,0,-0.0082,-0.0108,-0.0146,-0.0208,-0.0269,-0.0275,-0.0362,-0.0423,-0.0436,-0.0257,0.0013,0.0227,0.0641,0.0779,0.1282,0.1536,0.1498,0.1298,0.1122,0.11,0.1079,0.1082,0.1304,0.1303,0.1302,0.1301,0,0,-0.0053,-0.0071,-0.0105,-0.0147,-0.0183,-0.025,-0.03,-0.0314,-0.0294,-0.0236,0.0055,0.0315,0.0488,0.098,0.1168,0.1341,0.1373,0.1148,0.113,0.111,0.1126,0.1146,0.1355,0.1355,0.1354,0.1354,0.1354,0,-0.0034,-0.0045,-0.0063,-0.0109,-0.0137,-0.0161,-0.0186,-0.0212,-0.0196,-0.0124,0.0006,0.0195,0.06,0.0864,0.1122,0.1186,0.088,0.0975,0.0802,0.0762,0.077,0.0767,0.0746,0.0906,0.0903,0.0901,0.0899,0.0898,-0.0009,-0.0026,-0.005,-0.0071,-0.0088,-0.0101,-0.0117,-0.0097,-0.0107,-0.0027,-0.0027,0.012,0.0292,0.0546,0.0757,0.0934,0.0681,0.0897,0.0838,0.0672,0.0675,0.0658,0.0643,0.0867,0.0871,0.0874,0.0877,0,0.0006,-0.0011,-0.0031,-0.0046,-0.0053,-0.0061,-0.0069,-0.0069,-0.0037,-0.0032,-0.0022,0.0082,0.0195,0.0269,0.0358,0.0433,0.0531,0.059,0.0595,0.0619,0.0617,0.0608,0.078,0.0786,0.0791,0.0796,0.08,0,0.0016,0.0005,-0.0021,-0.0036,-0.0042,-0.0044,-0.0042,-0.0032,-0.0014,-0.0012,0.0037,0.0073,0.0114,0.0189,0.0216,0.0361,0.0303,0.0421,0.0443,0.043,0.0442,0.025,0.0246,0.0282,0.0281,0.028,0.028,0,0.0023,0.0002,-0.0016,-0.0025,-0.0038,-0.004,-0.004,-0.0024,-0.0019,0.0015,0.0031,0.0071,0.0097,0.0129,0.0186,0.0143,0.0271,0.0219,0.0382,0.0391,0.0443,0.0458,0.0279,0.0278,0.0278,0.0278,0.0278,0,0.0018,-0.0,-0.0021,-0.0031,-0.0035,-0.0041,-0.0032,-0.0028,-0.0005,0.0001,0.0021,0.0036,0.0071,0.005,0.0118,0.0081,0.011,0.0131,0.0135,0.03,0.0296,0.0387,0.0458,0.0179,0.0178,0.0177,0.0176,0,0.0023,-0.0004,-0.0019,-0.0032,-0.0046,-0.0055,-0.0048,-0.0045,-0.0041,-0.0024,-0.0008,0.0014,0.0001,0.0009,0.0024,0.0057,0.0085,0.0037,0.013,0.0134,0.0256,0.0313,0.0325,0.0431,0.0161,0.0163,0.0164,0,0.0022,-0.002,-0.0023,-0.0035,-0.0059,-0.0064,-0.0063,-0.006,-0.0051,-0.0055,-0.0032,-0.0013,-0.0009,0.0011,0.0016,0.0034,0.0063,0.0031,0.0033,0.0067,0.013,0.0275,0.0298,0.0046,0.0048,0.0049,0.0152,0,0.0005,-0.0014,-0.0022,-0.0048,-0.0055,-0.0067,-0.0076,-0.008,-0.0085,-0.0081,-0.006,-0.0045,-0.0014,-0.0015,-0.0009,0.0021,0.003,0.0023,0.0035,0.0039,0.0084,0.0093,0.0001,0.0002,0.0002,0.0003,0,0,0.0011,-0.0013,-0.0036,-0.005,-0.0057,-0.0075,-0.008,-0.0085,-0.0088,-0.0079,-0.0092,-0.0047,-0.0029,0.0003,-0.0005,0.0004,0.0024,0.001,0.0033,0.0036,0.0039,0.0082,0.009,0.0004,0.0004,0.0005,0.0005,0,0.0002,-0.0021,-0.0035,-0.0047,-0.0068,-0.0074,-0.0079,-0.0091,-0.0098,-0.0089,-0.0082,-0.0067,-0.0036,-0.0018,-0.0002,0.0008,0.0036,0.0008,0.001,0.0037,0.0039,0.0041,0.0084,0.009,0.0006,0.0006,0.0006,0,-0.0001,-0.002,-0.003,-0.0053,-0.0063,-0.0071,-0.008,-0.0093,-0.0095,-0.0081,-0.0077,-0.0065,-0.0034,-0.0018,-0.0007,-0.0002,0.0048,0.0025,0.0023,0.0044,0.0074,0.0077,0.0079,0.0054,0.0053,0.0053,0,0,-0.0007,-0.0027,-0.0043,-0.0054,-0.0062,-0.0073,-0.0078,-0.009,-0.009,-0.0093,-0.008,-0.006,-0.0039,-0.0028,-0.0005,0.0019,0.0052,0.0029,0.0026,0.0024,0.0044,0.0073,0.0076,0.0053,0.0053,0.0053,0,0,-0.0006,-0.0034,-0.0043,-0.0058,-0.0069,-0.0078,-0.0086,-0.0091,-0.0091,-0.0095,-0.0076,-0.0071,-0.0054,-0.0031,-0.004,-0.0004,0.0009,0.0012,-0.0028,-0.003,-0.0032,-0.0018,-0.0026,0,0,0,0,0,-0.0021,-0.003,-0.0037,-0.0041,-0.0062,-0.0071,-0.0073,-0.009,-0.0096,-0.0104,-0.0096,-0.0082,-0.0037,-0.0044,-0.0035,-0.0032,0.0048,0.0049,0.005,0.0006,0.0003,0.0001,0,0,0,0,0,0,-0.0022,-0.0028,-0.0036,-0.0046,-0.0051,-0.0071,-0.0081,-0.0085,-0.0097,-0.0101,-0.0084,-0.008,-0.0069,-0.0047,-0.0039,-0.0037,-0.0029,0.0049,0.0049,0.005,0.0005,0.0003,0.0001,0,0,0,0,0,-0.0024,-0.0028,-0.0063,-0.0046,-0.005,-0.007,-0.0082,-0.0086,-0.0098,-0.0078,-0.0076,-0.0113,-0.0068,-0.0061,-0.0042,-0.0042,-0.0035,-0.0032,0.0049,0.005,0.005,0.0004,0,0,0,0,0,0,-0.0025,-0.0027,-0.0063,-0.0064,-0.0055,-0.007,-0.0075,-0.0086,-0.0074,-0.0074,-0.0103,-0.0106,-0.0068,-0.0062,-0.0056,-0.0045,-0.0039,-0.0036,-0.0034,0.005,0.005,0.005,0,0,0,0,0,0,-0.0025,-0.0028,-0.0064,-0.0075,-0.0077,-0.007,-0.0074,-0.004,-0.0072,-0.0099,-0.0102,-0.0104,-0.0062,-0.0063,-0.0058,-0.0005,-0.0043,-0.004,-0.0038,-0.0036,0.005,0.005,0,0,0,0,0,0,-0.0026,-0.0029,-0.0074,-0.0076,-0.0079,-0.0092,-0.0037,-0.005,-0.011,-0.0098,-0.0113,-0.0114,-0.0062,-0.0058,-0.006,-0.0008,-0.0005,-0.0042,-0.004,-0.0039,-0.0038,0,0,0,0,0,0,0,-0.0027,-0.0009,-0.0057,-0.0078,-0.008,-0.0075,-0.0075,-0.0075,-0.011,-0.0111,-0.0112,-0.0113,-0.0059,-0.0056,-0.0053,-0.001,0,0,-0.0043,-0.0041,0,0,0,0,0,0,0,0,-0.0007,-0.0008,-0.0057,-0.0058,-0.0058,-0.0075,-0.0075,-0.0075,-0.011,-0.0111,-0.0112,-0.0113,-0.0058,-0.0056,-0.0053,0,0,0,0,0,0,0,0,0,0,0,0,0,0,0,-0.0057,-0.0058,0,-0.0075,-0.0075,-0.0075,-0.011,-0.0111,-0.0112,-0.0113,-0.0057,-0.0055,-0.0053,0,0,0,0,0,0,0,0,0,0,0,0,0,0,0,0,0,0,0,0,0,0,0,0,0,0,0,0,0,0,0,0,0,0,0,0,0,0,0,0,0,0,0,0,0,0,0,0,0,0,0,0,0,0,0,0,0,0,0,0,0,0,0,0,0,0,0,0,0]}]],[[{"header":{"parameterUnit":"kt","parameterCategory":2,"dx":1,"dy":1,"la1":30.253999710083008,"la2":30.299108505249023,"lo1":-89.0895004272461,"lo2":-89.04439544677734,"nx":28,"ny":28,"refTime":"2022-09-25T21:00:00:Z","depth":"4","parameterNumber":2,"parameterNumberName":"U-component_of_CURRENTS"},"data":[-0.1165,-0.1192,-0.1198,-0.1022,-0.0963,-0.0912,-0.0956,-0.1076,-0.103,-0.1193,-0.1162,-0.1324,-0.1291,-0.1369,-0.129,-0.131,-0.1634,-0.148,-0.1477,-0.2124,-0.2168,-0.2206,-0.2241,0,0,0,0,0,-0.1255,-0.1229,-0.1252,-0.1233,-0.1229,-0.1226,-0.1306,-0.1416,-0.1547,-0.1409,-0.1586,-0.1427,-0.1398,-0.1361,-0.1346,-0.1445,-0.1805,-0.1422,-0.1968,-0.2151,-0.2199,-0.2217,0,0,0,0,0,0,-0.1344,-0.1342,-0.1421,-0.1456,-0.1463,-0.1399,-0.1495,-0.1503,-0.1593,-0.1853,-0.1622,-0.1716,-0.1861,-0.1818,-0.1727,-0.1809,-0.1795,-0.191,-0.1967,-0.2015,-0.1982,-0.1696,-0.1286,0,0,0,0,0,-0.1422,-0.1492,-0.1555,-0.1607,-0.1657,-0.1677,-0.1737,-0.1805,-0.1979,-0.2279,-0.2138,-0.2182,-0.2078,-0.2141,-0.2216,-0.2118,-0.272,-0.2492,-0.2519,-0.2654,-0.2478,-0.2413,-0.2431,-0.2381,-0.2387,-0.2391,-0.2393,0,-0.1534,-0.1568,-0.1719,-0.1741,-0.1818,-0.1901,-0.1925,-0.2196,-0.2248,-0.2433,-0.2455,-0.2616,-0.2762,-0.2522,-0.2691,-0.2643,-0.2608,-0.2616,-0.2761,-0.2555,-0.2477,-0.2484,-0.2488,-0.2431,-0.2428,-0.2425,-0.2422,0,-0.1582,-0.1687,-0.1765,-0.1922,-0.1958,-0.1988,-0.2152,-0.2212,-0.2516,-0.2645,-0.2844,-0.318,-0.3151,-0.3383,-0.3359,-0.3312,-0.3147,-0.2978,-0.3253,-0.3183,-0.2563,-0.2552,-0.2495,-0.2481,-0.2469,-0.2459,-0.245,0,-0.1687,-0.1743,-0.1909,-0.1936,-0.1994,-0.2085,-0.2164,-0.2302,-0.2552,-0.2614,-0.3079,-0.3205,-0.3652,-0.3673,-0.3579,-0.3344,-0.3599,-0.3114,-0.3027,-0.3434,-0.3418,-0.3375,-0.335,-0.3607,-0.3608,-0.361,-0.3612,0,-0.1724,-0.1853,-0.1913,-0.1945,-0.2057,-0.2116,-0.2163,-0.2283,-0.2361,-0.2756,-0.2943,-0.3342,-0.356,-0.3648,-0.3535,-0.3575,-0.3523,-0.3544,-0.3093,-0.3054,-0.3375,-0.3348,-0.3614,-0.3614,-0.3615,-0.3615,-0.3616,0,-0.1793,-0.1855,-0.1928,-0.2031,-0.2055,-0.2106,-0.2206,-0.2239,-0.2443,-0.2598,-0.2955,-0.3121,-0.3397,-0.3393,-0.3525,-0.3538,-0.3424,-0.3344,-0.3336,-0.2941,-0.2759,-0.2909,-0.3078,-0.3076,-0.3074,-0.3072,-0.3071,0,-0.1793,-0.1876,-0.1925,-0.2,-0.2045,-0.21,-0.2147,-0.2222,-0.2304,-0.2463,-0.2701,-0.2901,-0.2944,-0.3105,-0.3219,-0.3146,-0.3192,-0.3166,-0.3112,-0.3104,-0.2785,-0.2873,-0.328,-0.3045,-0.3048,-0.3051,-0.3052,0,-0.1777,-0.1897,-0.191,-0.1955,-0.2018,-0.2038,-0.2105,-0.2179,-0.225,-0.2409,-0.2581,-0.2701,-0.2852,-0.2891,-0.2957,-0.3037,-0.3117,-0.2969,-0.297,-0.2887,-0.3258,-0.2877,-0.2853,-0.3245,-0.3252,-0.3257,-0.3035,0,-0.1818,-0.1874,-0.1901,-0.196,-0.1986,-0.2023,-0.2064,-0.2112,-0.2162,-0.2207,-0.2406,-0.2467,-0.2618,-0.2606,-0.2558,-0.2772,-0.2681,-0.2704,-0.268,-0.2815,-0.2671,-0.2686,-0.2455,-0.2451,-0.2448,-0.2445,0,0,-0.179,-0.1836,-0.1868,-0.1906,-0.1933,-0.197,-0.2003,-0.2035,-0.2078,-0.2123,-0.2125,-0.2316,-0.2274,-0.2469,-0.2479,-0.2437,-0.2442,-0.25,-0.2707,-0.2736,-0.2763,-0.264,-0.2658,-0.244,-0.2439,-0.2438,-0.2437,0,-0.1785,-0.1824,-0.1857,-0.1883,-0.1933,-0.1945,-0.197,-0.2007,-0.2039,-0.2087,-0.2108,-0.2195,-0.2218,-0.2272,-0.2296,-0.239,-0.2372,-0.2397,-0.2559,-0.2676,-0.271,-0.2739,-0.2625,-0.2643,-0.2429,-0.243,-0.243,0,-0.1769,-0.1795,-0.1812,-0.1852,-0.1881,-0.1911,-0.1918,-0.196,-0.199,-0.1984,-0.205,-0.2079,-0.2084,-0.2157,-0.2188,-0.2163,-0.2306,-0.2252,-0.2266,-0.2298,-0.2416,-0.2453,-0.2485,-0.208,-0.208,-0.208,0,0,-0.1764,-0.1794,-0.182,-0.1849,-0.1873,-0.19,-0.1921,-0.1939,-0.1964,-0.1985,-0.2008,-0.2031,-0.2065,-0.2101,-0.2098,-0.2163,-0.214,-0.2218,-0.2235,-0.2249,-0.2288,-0.2409,-0.2443,-0.2079,-0.2079,-0.2079,0,0,-0.1754,-0.179,-0.1808,-0.1842,-0.1865,-0.1875,-0.1909,-0.1927,-0.1963,-0.1984,-0.1988,-0.1994,-0.2063,-0.2037,-0.2021,-0.2125,-0.2044,-0.2048,-0.219,-0.2209,-0.2225,-0.2278,-0.2001,0,0,0,0,0,-0.1759,-0.1782,-0.1798,-0.1807,-0.1846,-0.1864,-0.1869,-0.1901,-0.1931,-0.195,-0.1978,-0.1974,-0.2026,-0.2011,-0.2013,-0.2108,-0.2062,-0.2065,-0.2068,-0.2261,-0.2282,-0.2299,0,0,0,0,0,0,-0.1763,-0.1772,-0.1797,-0.1808,-0.1818,-0.1863,-0.1871,-0.1879,-0.193,-0.1937,-0.1968,-0.1973,-0.1963,-0.2009,-0.2012,-0.2104,-0.2,-0.2064,-0.2066,-0.2068,-0.2268,-0.2285,-0.23,0,0,0,0,0,-0.1766,-0.1773,-0.1833,-0.1807,-0.1816,-0.1859,-0.1872,-0.1879,-0.1925,-0.1927,-0.1935,-0.1958,-0.1962,-0.1967,-0.201,-0.2104,-0.1998,-0.1999,-0.2065,-0.2067,-0.2069,-0.2276,0,0,0,0,0,0,-0.1768,-0.1767,-0.1835,-0.1838,-0.1822,-0.1859,-0.1867,-0.1879,-0.1914,-0.1922,-0.1912,-0.1916,-0.196,-0.1965,-0.1969,-0.2107,-0.1997,-0.1997,-0.1998,-0.2067,-0.2068,-0.2069,0,0,0,0,0,0,-0.1764,-0.1769,-0.1836,-0.1853,-0.1858,-0.1858,-0.1865,-0.187,-0.1914,-0.1896,-0.1901,-0.1913,-0.1964,-0.1963,-0.1966,-0.1971,-0.1995,-0.1996,-0.1997,-0.1997,-0.2068,-0.2069,0,0,0,0,0,0,-0.1766,-0.1771,-0.1852,-0.1856,-0.186,-0.1896,-0.1863,-0.1905,-0.192,-0.1893,-0.1924,-0.1926,-0.1962,-0.1966,-0.1964,-0.1968,-0.197,-0.1995,-0.1996,-0.1997,-0.1997,0,0,0,0,0,0,0,-0.1769,-0.1731,-0.1821,-0.1858,-0.1862,-0.1871,-0.1871,-0.1871,-0.1921,-0.1922,-0.1924,-0.1926,-0.199,-0.1991,-0.1992,-0.1964,0,0,-0.1995,-0.1996,0,0,0,0,0,0,0,0,-0.173,-0.1731,-0.1822,-0.1823,-0.1824,-0.1871,-0.1871,-0.1871,-0.1921,-0.1922,-0.1924,-0.1925,-0.199,-0.1991,-0.1992,0,0,0,0,0,0,0,0,0,0,0,0,0,0,0,-0.1822,-0.1823,0,-0.1871,-0.1871,-0.1871,-0.1921,-0.1922,-0.1923,-0.1924,-0.1991,-0.1991,-0.1992,0,0,0,0,0,0,0,0,0,0,0,0,0,0,0,0,0,0,0,0,0,0,0,0,0,0,0,0,0,0,0,0,0,0,0,0,0,0,0,0,0,0,0,0,0,0,0,0,0,0,0,0,0,0,0,0,0,0,0,0,0,0,0,0,0,0,0,0,0]}],[{"header":{"parameterUnit":"kt","parameterCategory":2,"dx":1,"dy":1,"la1":30.253999710083008,"la2":30.299108505249023,"lo1":-89.0895004272461,"lo2":-89.04439544677734,"nx":28,"ny":28,"refTime":"2022-09-25T21:00:00:Z","depth":"4","parameterNumber":3,"parameterNumberName":"V-component_of_CURRENTS"},"data":[-0.0614,-0.0721,-0.0774,-0.095,-0.1056,-0.1227,-0.1305,-0.1368,-0.1308,-0.1335,-0.1141,-0.1104,-0.0765,-0.1006,-0.046,-0.0399,0.0071,-0.0034,-0.0028,0.0755,0.0783,0.0809,0.0634,0,0,0,0,0,-0.0576,-0.0649,-0.0782,-0.0934,-0.1083,-0.1161,-0.1305,-0.1366,-0.1432,-0.1386,-0.1396,-0.1201,-0.0873,-0.0749,-0.0478,-0.0494,0.0155,-0.017,0.0495,0.0773,0.0804,0.0624,0,0,0,0,0,0,-0.0539,-0.061,-0.0711,-0.0847,-0.1003,-0.1136,-0.122,-0.1283,-0.1373,-0.144,-0.1406,-0.1243,-0.1101,-0.0732,-0.0466,-0.0193,0.0126,0.0401,0.045,0.0484,0.0281,-0.0108,-0.0138,0,0,0,0,0,-0.0494,-0.0536,-0.0622,-0.0774,-0.0898,-0.1055,-0.1187,-0.1261,-0.1369,-0.1451,-0.1409,-0.1219,-0.103,-0.0536,-0.0375,0.011,0.0612,0.0576,0.0608,0.0977,0.0733,0.0772,0.0764,0.0923,0.0927,0.093,0.0931,0,-0.0436,-0.0486,-0.0619,-0.0703,-0.0755,-0.09,-0.1015,-0.1129,-0.1223,-0.1341,-0.1363,-0.1208,-0.1056,-0.0538,-0.011,0.0443,0.0525,0.0649,0.1038,0.078,0.0816,0.08,0.0782,0.0956,0.0954,0.0952,0.095,0,-0.0408,-0.0439,-0.0544,-0.0651,-0.0698,-0.0796,-0.0971,-0.1089,-0.1158,-0.1267,-0.1226,-0.1094,-0.0726,-0.0396,0.0228,0.047,0.0858,0.0864,0.0759,0.0807,0.0844,0.0816,0.0998,0.0989,0.0981,0.0974,0.0969,0,-0.0361,-0.0429,-0.049,-0.0537,-0.0674,-0.0716,-0.0875,-0.0923,-0.102,-0.1109,-0.0954,-0.092,-0.0323,-0.0104,0.0319,0.0652,0.0851,0.0983,0.1036,0.1209,0.1181,0.1275,0.125,0.1474,0.1473,0.1472,0.1471,0,-0.03,-0.0379,-0.0458,-0.0487,-0.058,-0.0646,-0.0701,-0.0786,-0.0865,-0.0849,-0.0888,-0.057,-0.0435,0.0059,0.0381,0.0527,0.0877,0.1126,0.1014,0.0987,0.126,0.1237,0.147,0.147,0.147,0.1469,0.1469,0,-0.0249,-0.0288,-0.0376,-0.0476,-0.0496,-0.0549,-0.0667,-0.071,-0.0747,-0.0745,-0.0645,-0.0525,-0.029,-0.0129,0.0399,0.0346,0.0582,0.0782,0.0796,0.0551,0.0554,0.0791,0.0871,0.0866,0.0862,0.0858,0.0854,0,-0.0195,-0.026,-0.0262,-0.0348,-0.0384,-0.0384,-0.0447,-0.0474,-0.048,-0.0515,-0.0385,-0.0363,-0.0196,-0.0151,0.0081,0.033,0.0485,0.0327,0.0798,0.0805,0.0557,0.0584,0.0674,0.0795,0.0803,0.0808,0.0812,0,-0.014,-0.0164,-0.0168,-0.0206,-0.0211,-0.0231,-0.0275,-0.0304,-0.0365,-0.0264,-0.031,-0.023,-0.014,-0.0127,-0.0049,0.0154,0.0379,0.0318,0.0333,0.0382,0.086,0.0545,0.0548,0.0635,0.0642,0.0649,0.0771,0,-0.0095,-0.0117,-0.0128,-0.0142,-0.0152,-0.0168,-0.0149,-0.0157,-0.0131,-0.012,-0.0101,-0.0031,-0.0007,-0.0006,0.0026,0.0152,0.0189,0.0303,0.0374,0.0401,0.0428,0.046,0.0098,0.0099,0.01,0.01,0,0,-0.0038,-0.0061,-0.0022,-0.0041,-0.0053,0.0008,-0.0027,-0.0011,0.0018,0.0001,0.0057,0.0086,0.0095,0.0091,0.008,0.008,0.0223,0.0115,0.0331,0.0355,0.0379,0.0412,0.0441,0.0101,0.0102,0.0102,0.0102,0,-0.0014,-0.0002,-0.0019,-0.0013,0.0013,0.0031,0.0031,0.0066,0.008,0.0072,0.0114,0.0129,0.0138,0.0147,0.0151,0.0097,0.0237,0.0104,0.0076,0.0329,0.0352,0.0374,0.041,0.0436,0.0104,0.0104,0.0104,0,0.003,0.0044,0.0037,0.0054,0.0075,0.0064,0.0125,0.0135,0.0118,0.0188,0.0175,0.0208,0.0223,0.0211,0.0208,0.0225,0.0282,0.0194,0.0189,0.0191,0.0456,0.0479,0.05,0.0255,0.0256,0.0256,0,0,0.0052,0.0042,0.0076,0.0062,0.0075,0.0113,0.0125,0.015,0.0176,0.0188,0.0216,0.0231,0.0235,0.0243,0.0246,0.0232,0.0331,0.0213,0.0205,0.02,0.0198,0.0458,0.0478,0.0258,0.0258,0.0258,0,0,0.0066,0.0091,0.0104,0.0093,0.0114,0.0153,0.0158,0.0184,0.0205,0.0212,0.0254,0.0263,0.0257,0.0269,0.0292,0.0256,0.0284,0.028,0.0257,0.0249,0.0242,0.0242,0.0334,0,0,0,0,0,0.0102,0.0084,0.0095,0.0098,0.0123,0.0139,0.0145,0.0191,0.0214,0.0213,0.0243,0.027,0.0286,0.0308,0.0311,0.0288,0.0284,0.0279,0.0275,0.0241,0.0232,0.0224,0,0,0,0,0,0,0.0104,0.0105,0.0097,0.013,0.0137,0.014,0.0183,0.0195,0.0216,0.0223,0.0262,0.027,0.0298,0.0308,0.031,0.0289,0.0333,0.0282,0.0278,0.0275,0.0238,0.023,0.0224,0,0,0,0,0,0.0105,0.0106,0.0131,0.0132,0.0138,0.0193,0.0185,0.0195,0.0211,0.0253,0.0263,0.0247,0.0296,0.0302,0.031,0.0287,0.0332,0.0333,0.0279,0.0276,0.0274,0.0234,0,0,0,0,0,0,0.0106,0.0114,0.0134,0.0139,0.0148,0.0194,0.0201,0.0194,0.024,0.025,0.0239,0.0244,0.0295,0.0299,0.0303,0.0284,0.0331,0.0332,0.0332,0.0277,0.0275,0.0273,0,0,0,0,0,0,0.0114,0.0116,0.0136,0.0153,0.016,0.0196,0.0201,0.0203,0.024,0.0223,0.0229,0.0241,0.0292,0.0297,0.03,0.03,0.033,0.0331,0.0331,0.0331,0.0275,0.0273,0,0,0,0,0,0,0.0116,0.0119,0.0152,0.0157,0.0163,0.0215,0.0198,0.0221,0.0256,0.0219,0.0261,0.0263,0.0289,0.0293,0.0298,0.0296,0.0299,0.033,0.033,0.0331,0.0331,0,0,0,0,0,0,0,0.0118,0.0086,0.0111,0.0161,0.0166,0.0181,0.0182,0.0183,0.0257,0.0259,0.0261,0.0262,0.0326,0.0327,0.0328,0.0293,0,0,0.033,0.033,0,0,0,0,0,0,0,0,0.0087,0.0086,0.0111,0.0112,0.0113,0.0182,0.0182,0.0183,0.0257,0.0259,0.026,0.0262,0.0326,0.0327,0.0327,0,0,0,0,0,0,0,0,0,0,0,0,0,0,0,0.0111,0.0112,0,0.0182,0.0182,0.0183,0.0257,0.0259,0.026,0.0261,0.0326,0.0327,0.0327,0,0,0,0,0,0,0,0,0,0,0,0,0,0,0,0,0,0,0,0,0,0,0,0,0,0,0,0,0,0,0,0,0,0,0,0,0,0,0,0,0,0,0,0,0,0,0,0,0,0,0,0,0,0,0,0,0,0,0,0,0,0,0,0,0,0,0,0,0]}]]]